{"data":{"norad_id":43881,"intl_designator":"2018-111F","name":"D-STAR ONE (SPARROW)","alt_names":[],"object_type":"PAYLOAD","status":"ACTIVE","operator":null,"country":"GER","launch_date":"2018-12-27","launch_site_code":"VOSTO","launch_vehicle":null,"mission":null,"orbit_class":"UNKNOWN","rcs_meters":null,"size_class":null,"mass_kg":null,"dimensions":null,"purposes":[],"wikipedia_slug":null,"has_3d_model":false,"image_url":null,"decayed_at":null,"tle_current":{"epoch":"2026-08-15T19:42:38.642112Z","epoch_age_seconds":3141108,"freshness":"OLD","line1":"1 43881U 18111F   26227.82128058  .03832640  26023-5  10781-2 0  9992","line2":"2 43881  97.5934 175.7283 0011221 186.0963 174.0194 16.27609453420843","mean_motion":16.27609453,"eccentricity":0.0011221,"inclination_deg":97.5934,"raan_deg":175.7283,"arg_perigee_deg":186.0963,"mean_anomaly_deg":174.0194,"bstar":0.0010781,"rev_number":42084,"period_min":88.473312645475,"perigee_km":191.59182068067,"apogee_km":206.35216868654,"semimajor_km":6577.1089946836,"source":"CELESTRAK","updated_at":"2026-08-16T09:00:22.193982Z"}}}